STARLINK-31977, 59892

Orbit data source: Space-Track

STARLINK-31977, 59892 is a payload satellite owned by SpaceX/Seattle (US) in LEO that was launched on Tue, 28 May 2024 UTC via an FALCON 9 launch vehicle from the Air Force Eastern Test Range (AFETR). Payload-class satellites include a variety of spacecraft equipped with specific instruments for various scientific and technological missions. These include communications satellites like Starlink; space stations such as the ISS; scientific satellites like the Hubble; Earth observation satellites from companies like Planet Labs, Umbra, and HawkEye 360; GPS; miniature CubeSats for education and research; and military/defense satellites.

Loading next visibility...
Identifier
59892, 2024-100H
Orbit
LEO
Country
Flag of USUS
Related business
Manufacturer
SpaceX/Seattle
Mission
Operational Commercial Communications
Bus & Motor
STARLINK V2M, Unknown motor
Mass
730 kg wet, ~700 kg dry
Launch date (UTC)
2024-05-28 (2 years ago)
Launch vehicle
FALCON 9
Launch site
Air Force Eastern Test Range (AFETR)
Object type
Payload
Rocket body
Debris
Shape & HBR
Box + 2 Pan, 17.7 m
Radar Cross Section
33.884 m², Large (>1 m²)

Expand to show TLE details & history
Last TLE update: 6 hours ago

TLE from 6 hours ago
0 STARLINK-31977
1 59892U 24100H   26126.51191113  .00000469  00000-0  26569-4 0  9990
2 59892  43.0030 151.6176 0001196 274.5355  85.5360 15.27579078110088
Epoch: 2026-05-06T12:17Z
TLE epoch observation values (Epoch: 2026-05-06T12:17:09.121Z)
Latitude
-0.00003°
Longitude
102.95822°
Altitude
482.764 km
Speed
7.626 km/s
True Right ascension
10h 06m 28s
True Declination
0° 00' 00"
Sunlit
Object was in daylight at epoch
Visualization orbit readout
Latitude
Unknown
Longitude
Unknown
Altitude
Unknown
Speed
Unknown
Apparent Right ascension
Unknown
Apparent Declination
Unknown
Sunlit
N/A
Visualization observer readout
Local Sidereal Time
01:59:14
Azimuth
Unknown
Elevation
Unknown
Doppler factor
Unknown
Orbital elements
Apogee altitude
485.817 km
Perigee altitude
484.176 km
Semi-major axis
6,863.134 km
Eccentricity
0.00012
Inclination
43.003°
RAAN
151.6176°
Arg. of periapsis
274.5355°
True anomaly
85.54966°
Mean anomaly
85.536°
Eccentric anomaly
85.54283°
Mean motion
3.81733 °/min
Orbital period
94.31 mins
BSTAR
0.000026569
Loading maneuver chart data...
Computing Atmospheric mass density...
Loading historical data...
Loading historical data...
Loading historical data...
Loading historical data...
Loading historical data...
Loading historical data...
Loading historical data...

Documentation

Showing up to 5 results
|